period_start,C,m1,H,J0,J1,J2,J3,J4,J5,JA,JB,JC,JD,JJ,JK,JN,#
2014-12-23 00:04:47,0.04,1.33,0.00,20.57,25.30,28.52,4.82,27.11,1011.82,2040.01,3014.57,2943.01,3185.04,350.06,349.19,15.06,0000 0000 0000 0000 000000
2014-12-23 00:09:48,0.02,1.33,0.00,20.56,25.30,28.49,4.79,27.18,1011.80,2040.01,3014.02,2942.88,3184.82,350.02,348.91,15.09,0000 0000 0000 0000 000000
2014-12-23 00:14:49,0.09,1.33,0.00,20.50,25.30,28.49,4.79,27.22,1011.77,2040.01,3013.46,2942.09,3184.05,349.74,348.87,15.12,0000 0000 0000 0000 000000
2014-12-23 00:19:50,0.01,1.33,0.00,20.49,25.28,28.48,4.87,27.43,1011.73,2040.01,3013.00,2941.99,3183.98,349.77,348.82,15.15,0000 0000 0000 0000 000000
2014-12-23 00:24:51,0.05,1.33,0.00,20.49,25.27,28.47,4.74,27.18,1011.73,2040.02,3012.46,2941.84,3183.47,349.44,348.28,15.18,0000 0000 0000 0000 000000
2014-12-23 00:29:53,0.05,1.33,0.00,20.46,25.27,28.46,4.86,27.02,1011.72,2040.05,3012.01,2941.14,3183.01,349.99,349.07,15.21,0000 0000 0000 0000 000000
2014-12-23 00:34:54,0.06,1.34,0.00,20.47,25.25,28.45,4.79,27.13,1011.46,2040.24,3011.70,2941.00,3182.94,349.69,348.59,15.24,0000 0000 0000 0000 000000
2014-12-23 00:39:55,0.05,1.34,0.00,20.49,25.25,28.42,4.81,27.13,1011.42,2040.29,3011.04,2940.93,3182.25,350.06,349.04,15.27,0000 0000 0000 0000 000000
2014-12-23 00:44:57,0.11,1.34,0.00,20.48,25.24,28.42,4.82,26.98,1011.38,2040.64,3010.71,2940.47,3182.00,349.98,348.71,15.30,0000 0000 0000 0000 000000
2014-12-23 00:49:58,0.06,1.34,0.00,20.45,25.22,28.42,4.83,27.03,1011.25,2040.79,3010.04,2940.01,3181.77,350.20,349.31,15.33,0000 0000 0000 0000 000000
2014-12-23 00:54:59,0.03,1.34,0.00,20.46,25.22,28.42,4.81,27.01,1011.24,2040.89,3009.83,2939.98,3181.05,349.95,348.95,15.36,0000 0000 0000 0000 000000
2014-12-23 01:00:00,0.07,1.35,0.00,20.44,25.21,28.41,4.86,27.01,1011.21,2040.95,3009.08,2939.45,3180.97,350.62,349.54,15.39,0000 0000 0000 0000 000000
2014-12-23 01:05:02,0.05,1.35,0.00,20.41,25.20,28.38,4.73,27.06,1010.91,2040.96,3008.74,2939.02,3180.27,349.69,348.44,15.41,0000 0000 0000 0000 000000
2014-12-23 01:10:03,0.02,1.35,0.00,20.42,25.20,28.35,4.89,27.07,1010.96,2040.95,3008.06,2938.94,3180.00,350.46,349.12,15.44,0000 0000 0000 0000 000000
2014-12-23 01:15:04,0.06,1.35,0.00,20.41,25.18,28.36,4.84,27.08,1010.85,2040.97,3007.86,2938.31,3179.81,350.17,348.93,15.47,0000 0000 0000 0000 000000
2014-12-23 01:20:06,0.05,1.35,0.00,20.36,25.17,28.33,4.84,27.20,1010.82,2040.98,3007.11,2938.01,3179.11,350.14,349.09,15.50,0000 0000 0000 0000 000000
2014-12-23 01:25:07,0.02,1.35,0.00,20.38,25.16,28.36,4.86,27.21,1010.78,2040.98,3006.87,2937.89,3178.93,350.02,348.58,15.53,0000 0000 0000 0000 000000
2014-12-23 01:30:08,0.09,1.36,0.00,20.38,25.15,28.33,4.88,27.25,1010.76,2040.99,3006.13,2937.18,3178.17,350.63,349.41,15.56,0000 0000 0000 0000 000000
2014-12-23 01:35:10,0.02,1.36,0.00,20.35,25.15,28.32,4.85,27.19,1010.75,2040.99,3005.70,2936.99,3177.99,350.07,348.81,15.59,0000 0000 0000 0000 000000
2014-12-23 01:40:11,0.08,1.36,0.00,20.36,25.12,28.30,4.85,27.09,1010.76,2040.99,3005.02,2936.48,3177.31,349.85,348.68,15.62,0000 0000 0000 0000 000000
2014-12-23 01:45:12,0.03,1.36,0.00,20.39,25.12,28.33,4.87,27.06,1010.62,2040.99,3004.48,2936.02,3177.00,350.48,349.02,15.65,0000 0000 0000 0000 000000
2014-12-23 01:50:14,0.02,1.36,0.00,20.36,25.11,28.27,4.75,26.85,1010.70,2040.99,3004.00,2936.00,3176.71,349.19,347.97,15.68,0000 0000 0000 0000 000000
2014-12-23 01:55:15,0.05,1.36,0.00,20.35,25.10,28.27,4.84,27.04,1010.76,2041.00,3003.58,2935.79,3176.04,350.02,348.75,15.71,0000 0000 0000 0000 000000
2014-12-23 02:00:16,0.04,1.36,0.00,20.34,25.10,28.26,4.77,27.02,1010.53,2041.00,3003.02,2935.09,3175.99,349.70,348.44,15.74,0000 0000 0000 0000 000000
2014-12-23 02:05:18,0.05,1.36,0.00,20.36,25.07,28.25,4.79,26.87,1010.28,2041.01,3002.38,2934.98,3175.32,350.20,349.01,15.77,0000 0000 0000 0000 000000
2014-12-23 02:10:19,0.04,1.37,0.00,20.34,25.07,28.28,4.85,27.13,1010.27,2041.01,3001.99,2934.49,3175.01,350.44,348.92,15.80,0000 0000 0000 0000 000000
2014-12-23 02:15:20,0.05,1.37,0.00,20.36,25.07,28.24,4.86,27.18,1010.28,2041.05,3001.47,2934.03,3174.76,350.10,348.72,15.83,0000 0000 0000 0000 000000
2014-12-23 02:20:22,0.02,1.37,0.00,20.36,25.05,28.22,4.88,27.29,1010.27,2041.02,3000.99,2933.98,3174.05,349.73,348.43,15.85,0000 0000 0000 0000 000000
2014-12-23 02:25:23,0.05,1.37,0.00,20.37,25.05,28.23,4.83,26.84,1010.27,2041.06,3000.54,2933.60,3173.98,350.25,348.89,15.88,0000 0000 0000 0000 000000
2014-12-23 02:30:24,0.09,1.37,0.00,20.37,25.05,28.24,4.83,26.95,1010.27,2041.20,3000.01,2933.05,3173.38,350.01,348.60,15.91,0000 0000 0000 0000 000000
2014-12-23 02:35:26,0.02,1.37,0.00,20.37,25.04,28.21,4.84,27.10,1010.21,2041.19,2999.43,2932.98,3173.01,349.90,348.75,15.94,0000 0000 0000 0000 000000
2014-12-23 02:40:27,0.04,1.37,0.00,20.37,25.03,28.21,4.85,27.21,1010.06,2041.15,2998.97,2932.41,3172.64,349.47,348.31,15.97,0000 0000 0000 0000 000000
2014-12-23 02:45:28,0.08,1.38,0.00,20.42,25.02,28.22,4.85,27.14,1010.06,2041.25,2998.39,2932.01,3172.04,350.05,348.53,16.00,0000 0000 0000 0000 000000
2014-12-23 02:50:30,0.03,1.38,0.00,20.42,25.02,28.23,4.86,27.06,1009.91,2041.53,2997.99,2931.99,3171.97,350.18,348.74,16.03,0000 0000 0000 0000 000000
2014-12-23 02:55:31,0.10,1.38,0.00,20.39,25.02,28.22,4.77,26.84,1010.23,2041.57,2997.36,2931.54,3171.47,349.73,348.35,16.06,0000 0000 0000 0000 000000
2014-12-23 03:00:32,0.05,1.38,0.00,20.40,25.02,28.21,4.83,27.05,1010.09,2041.65,2996.99,2931.01,3171.01,350.65,349.17,16.09,0000 0000 0000 0000 000000
2014-12-23 03:05:34,0.05,1.38,0.00,20.42,25.02,28.22,4.78,26.98,1009.80,2041.82,2996.23,2930.97,3170.69,349.60,347.99,16.12,0000 0000 0000 0000 000000
2014-12-23 03:10:35,0.06,1.39,0.00,20.45,25.02,28.21,4.84,27.18,1009.78,2041.79,2995.95,2930.29,3170.04,350.02,348.27,16.15,0000 0000 0000 0000 000000
2014-12-23 03:15:36,0.05,1.39,0.00,20.45,25.02,28.20,4.80,26.98,1009.79,2041.91,2995.19,2930.02,3169.90,349.54,347.94,16.18,0000 0000 0000 0000 000000
2014-12-23 03:20:37,0.03,1.39,0.00,20.45,25.02,28.20,4.80,26.94,1009.78,2041.89,2994.80,2929.85,3169.10,350.21,348.52,16.21,0000 0000 0000 0000 000000
2014-12-23 03:25:39,0.07,1.39,0.00,20.44,25.02,28.22,4.85,27.03,1009.78,2041.92,2994.05,2929.10,3168.96,350.78,349.13,16.24,0000 0000 0000 0000 000000
2014-12-23 03:30:40,0.05,1.39,0.00,20.47,25.02,28.22,4.81,27.06,1009.77,2041.92,2993.48,2928.97,3168.21,349.54,348.07,16.26,0000 0000 0000 0000 000000
2014-12-23 03:35:41,0.06,1.39,0.00,20.48,25.02,28.20,4.79,27.13,1009.57,2041.93,2992.89,2928.23,3167.90,350.26,348.34,16.29,0000 0000 0000 0000 000000
2014-12-23 03:40:43,0.05,1.40,0.00,20.49,25.02,28.20,4.79,27.08,1009.60,2041.91,2992.07,2928.00,3167.10,349.78,347.98,16.32,0000 0000 0000 0000 000000
2014-12-23 03:45:44,0.03,1.40,0.00,20.52,25.02,28.22,4.75,26.98,1009.60,2041.95,2991.84,2927.82,3166.90,349.62,347.66,16.35,0000 0000 0000 0000 000000
2014-12-23 03:50:46,0.08,1.40,0.00,20.51,25.02,28.22,4.72,26.87,1009.30,2041.94,2991.06,2927.05,3166.10,349.64,347.85,16.38,0000 0000 0000 0000 000000
2014-12-23 03:55:47,0.03,1.40,0.00,20.54,25.02,28.19,4.81,27.02,1009.40,2041.93,2990.61,2926.93,3165.87,349.97,348.34,16.41,0000 0000 0000 0000 000000
2014-12-23 04:00:48,0.08,1.40,0.00,20.55,25.02,28.23,4.76,27.20,1009.29,2041.92,2989.98,2926.17,3165.09,350.12,348.18,16.44,0000 0000 0000 0000 000000
2014-12-23 04:05:49,0.03,1.40,0.00,20.54,25.04,28.20,4.80,27.07,1009.29,2041.90,2989.23,2925.97,3164.80,349.86,347.86,16.47,0000 0000 0000 0000 000000
2014-12-23 04:10:51,0.07,1.41,0.00,20.53,25.05,28.20,4.77,27.05,1009.29,2041.85,2988.90,2925.27,3164.04,350.31,348.29,16.50,0000 0000 0000 0000 000000
2014-12-23 04:15:52,0.02,1.41,0.00,20.53,25.05,28.22,4.83,27.08,1009.28,2041.83,2988.12,2925.01,3163.77,349.91,348.15,16.53,0000 0000 0000 0000 000000
2014-12-23 04:20:53,0.06,1.41,0.00,20.56,25.05,28.21,4.83,27.14,1009.29,2041.86,2987.80,2924.87,3163.06,350.13,348.18,16.56,0000 0000 0000 0000 000000
2014-12-23 04:25:54,0.02,1.41,0.00,20.54,25.05,28.22,4.76,27.07,1009.29,2041.73,2987.07,2924.12,3162.79,349.43,347.59,16.59,0000 0000 0000 0000 000000
2014-12-23 04:30:55,0.02,1.41,0.00,20.52,25.06,28.23,4.72,26.92,1009.29,2041.48,2986.60,2923.97,3162.04,349.39,347.65,16.62,0000 0000 0000 0000 000000
2014-12-23 04:35:57,0.08,1.41,0.00,20.55,25.07,28.23,4.84,27.09,1009.29,2041.57,2986.02,2923.45,3161.90,349.92,347.96,16.64,0000 0000 0000 0000 000000
2014-12-23 04:40:58,0.02,1.41,0.00,20.56,25.07,28.25,4.78,27.23,1009.29,2041.29,2985.22,2923.01,3161.10,349.84,347.84,16.67,0000 0000 0000 0000 000000
2014-12-23 04:45:59,0.03,1.41,0.00,20.56,25.07,28.25,4.75,26.83,1009.29,2041.37,2984.97,2922.81,3160.93,349.85,347.90,16.70,0000 0000 0000 0000 000000
2014-12-23 04:51:00,0.07,1.42,0.00,20.55,25.07,28.27,4.78,27.16,1009.29,2041.32,2984.20,2922.08,3160.16,349.51,347.53,16.73,0000 0000 0000 0000 000000
2014-12-23 04:56:02,-0.00,1.42,0.00,20.55,25.07,28.26,4.79,26.99,1009.29,2041.18,2983.74,2921.95,3159.91,350.16,348.36,16.76,0000 0000 0000 0000 000000
2014-12-23 05:01:03,0.07,1.42,0.00,20.58,25.09,28.29,4.77,27.07,1009.30,2041.16,2983.04,2921.29,3159.14,350.16,348.13,16.79,0000 0000 0000 0000 000000
2014-12-23 05:06:04,0.02,1.42,0.00,20.60,25.09,28.27,4.79,27.07,1009.29,2041.05,2982.47,2920.99,3158.90,349.93,347.76,16.82,0000 0000 0000 0000 000000
2014-12-23 05:11:05,0.07,1.42,0.00,20.61,25.10,28.30,4.84,27.32,1009.28,2041.05,2981.91,2920.36,3158.08,350.09,348.05,16.85,0000 0000 0000 0000 000000
2014-12-23 05:16:06,0.04,1.42,0.00,20.58,25.10,28.30,4.79,26.90,1009.29,2041.07,2981.12,2920.01,3157.79,349.90,347.83,16.88,0000 0000 0000 0000 000000
2014-12-23 05:21:07,0.04,1.42,0.00,20.59,25.10,28.28,4.91,27.25,1009.29,2041.06,2980.90,2919.82,3157.06,350.37,348.02,16.91,0000 0000 0000 0000 000000
2014-12-23 05:26:08,0.07,1.43,0.00,20.60,25.10,28.30,4.76,26.88,1009.29,2041.03,2980.09,2919.09,3156.84,350.13,348.07,16.94,0000 0000 0000 0000 000000
2014-12-23 05:31:10,0.03,1.43,0.00,20.62,25.11,28.27,4.75,26.81,1009.29,2041.03,2979.74,2918.98,3156.10,349.67,347.57,16.97,0000 0000 0000 0000 000000
2014-12-23 05:36:11,0.06,1.43,0.00,20.66,25.12,28.28,4.79,26.79,1009.30,2041.03,2979.01,2918.38,3155.95,349.62,347.60,17.00,0000 0000 0000 0000 000000
2014-12-23 05:41:12,0.06,1.43,0.00,20.66,25.12,28.27,4.77,26.94,1009.30,2041.01,2978.15,2918.01,3155.12,349.98,347.85,17.03,0000 0000 0000 0000 000000
2014-12-23 05:46:13,0.02,1.43,0.00,20.68,25.12,28.30,4.83,26.79,1009.29,2041.02,2977.91,2917.84,3154.98,350.61,348.63,17.05,0000 0000 0000 0000 000000
2014-12-23 05:51:14,0.09,1.43,0.00,20.67,25.13,28.26,4.80,26.82,1009.29,2041.02,2977.09,2917.06,3154.20,349.97,348.05,17.08,0000 0000 0000 0000 000000
2014-12-23 05:56:16,0.03,1.43,0.00,20.68,25.14,28.25,4.84,26.76,1009.29,2041.02,2976.65,2916.92,3153.95,350.02,348.07,17.11,0000 0000 0000 0000 000000
2014-12-23 06:01:17,0.07,1.44,0.00,20.71,25.15,28.28,4.82,26.78,1009.29,2041.01,2976.00,2916.19,3153.20,349.87,347.64,17.14,0000 0000 0000 0000 000000
2014-12-23 06:06:18,0.05,1.44,0.00,20.74,25.15,28.27,4.77,27.08,1009.13,2041.01,2975.23,2915.96,3152.68,350.00,347.78,17.17,0000 0000 0000 0000 000000
2014-12-23 06:11:20,0.08,1.44,0.00,20.73,25.17,28.28,4.79,26.88,1009.17,2041.00,2974.60,2915.24,3152.03,349.70,347.43,17.20,0000 0000 0000 0000 000000
2014-12-23 06:16:21,0.02,1.44,0.00,20.78,25.17,28.29,4.71,26.75,1009.17,2041.00,2974.01,2915.00,3151.74,349.87,347.75,17.23,0000 0000 0000 0000 000000
2014-12-23 06:21:22,0.07,1.44,0.00,20.79,25.18,28.30,4.84,26.88,1009.27,2041.00,2973.38,2914.58,3151.03,349.90,347.87,17.26,0000 0000 0000 0000 000000
2014-12-23 06:26:23,0.03,1.44,0.00,20.79,25.20,28.29,4.86,26.91,1009.12,2041.00,2972.96,2914.02,3150.68,350.22,347.94,17.29,0000 0000 0000 0000 000000
2014-12-23 06:31:25,0.04,1.45,0.00,20.83,25.20,28.29,4.90,26.98,1008.98,2041.00,2972.15,2913.89,3150.02,350.88,348.49,17.32,0000 0000 0000 0000 000000
2014-12-23 06:36:26,0.09,1.45,0.00,20.83,25.22,28.30,4.89,27.13,1009.11,2041.00,2971.57,2913.08,3149.30,350.47,348.23,17.35,0000 0000 0000 0000 000000
2014-12-23 06:41:28,0.03,1.45,0.00,20.86,25.22,28.33,4.80,27.04,1009.27,2040.99,2970.96,2912.73,3148.94,350.22,348.09,17.38,0000 0000 0000 0000 000000
2014-12-23 06:46:29,0.08,1.45,0.00,20.87,25.25,28.31,4.79,26.77,1009.25,2040.98,2970.13,2912.07,3148.15,350.10,347.95,17.41,0000 0000 0000 0000 000000
2014-12-23 06:51:30,0.02,1.45,0.00,20.89,25.25,28.33,4.83,27.07,1009.28,2040.98,2969.74,2911.95,3147.86,350.26,347.89,17.44,0000 0000 0000 0000 000000
2014-12-23 06:56:31,0.08,1.46,0.00,20.92,25.27,28.34,4.83,26.97,1009.24,2040.96,2969.02,2911.20,3147.06,350.19,347.81,17.47,0000 0000 0000 0000 000000
2014-12-23 07:01:33,0.05,1.46,0.00,20.94,25.28,28.36,4.80,26.85,1009.16,2040.96,2968.30,2910.91,3146.69,350.00,347.55,17.49,0000 0000 0000 0000 000000
2014-12-23 07:06:34,0.05,1.46,0.00,20.92,25.30,28.38,4.78,27.04,1009.13,2040.94,2967.93,2910.23,3146.03,349.69,347.20,17.52,0000 0000 0000 0000 000000
2014-12-23 07:11:35,0.03,1.46,0.00,20.93,25.31,28.38,4.82,26.94,1009.28,2040.84,2967.14,2909.99,3145.65,350.23,347.75,17.55,0000 0000 0000 0000 000000
2014-12-23 07:16:36,0.09,1.46,0.00,20.94,25.32,28.41,4.83,27.08,1009.20,2040.80,2966.64,2909.35,3145.02,350.34,347.95,17.58,0000 0000 0000 0000 000000
2014-12-23 07:21:37,-0.01,1.46,0.00,20.93,25.33,28.43,4.86,27.10,1008.98,2040.66,2966.00,2909.00,3144.57,350.36,347.85,17.61,0000 0000 0000 0000 000000
2014-12-23 07:26:38,0.03,1.46,0.00,20.94,25.35,28.47,4.73,26.96,1009.06,2040.26,2965.22,2908.47,3143.99,349.91,347.45,17.64,0000 0000 0000 0000 000000
2014-12-23 07:31:39,0.01,1.46,0.00,20.93,25.36,28.46,4.79,26.88,1009.07,2040.13,2964.82,2908.01,3143.35,349.68,347.29,17.67,0000 0000 0000 0000 000000
2014-12-23 07:36:40,0.05,1.46,0.00,20.94,25.37,28.48,4.82,26.81,1009.24,2040.06,2964.03,2907.64,3142.89,349.81,347.45,17.70,0000 0000 0000 0000 000000
2014-12-23 07:41:42,0.07,1.47,0.00,20.98,25.38,28.48,4.77,26.77,1009.29,2040.02,2963.25,2907.02,3142.10,349.19,346.96,17.73,0000 0000 0000 0000 000000
2014-12-23 07:46:43,0.04,1.47,0.00,21.00,25.40,28.48,4.82,26.57,1009.39,2040.03,2962.75,2906.73,3141.90,349.63,347.20,17.76,0000 0000 0000 0000 000000
2014-12-23 07:51:44,0.07,1.47,0.00,21.01,25.40,28.51,4.78,26.62,1009.38,2040.02,2962.02,2906.03,3141.12,349.90,347.31,17.79,0000 0000 0000 0000 000000
2014-12-23 07:56:45,0.09,1.47,0.00,21.06,25.42,28.48,4.85,26.64,1009.30,2040.00,2961.20,2905.58,3140.54,350.39,347.84,17.82,0000 0000 0000 0000 000000
2014-12-23 08:01:47,0.04,1.47,0.00,21.09,25.43,28.48,4.74,26.60,1009.29,2040.00,2960.67,2905.03,3140.01,350.10,347.34,17.85,0000 0000 0000 0000 000000
2014-12-23 08:06:48,0.06,1.48,0.00,21.12,25.45,28.53,4.84,26.79,1009.44,2040.00,2959.95,2904.76,3139.44,350.23,347.79,17.87,0000 0000 0000 0000 000000
2014-12-23 08:11:48,0.06,1.48,0.00,21.16,25.46,28.54,4.84,26.70,1009.41,2040.00,2959.13,2904.05,3138.95,350.51,347.99,17.90,0000 0000 0000 0000 000000
2014-12-23 08:16:50,0.07,1.48,0.00,21.18,25.47,28.52,4.80,26.68,1009.34,2040.00,2958.64,2903.74,3138.18,349.73,347.07,17.93,0000 0000 0000 0000 000000
2014-12-23 08:21:51,0.07,1.48,0.00,21.23,25.49,28.49,4.85,26.70,1009.32,2039.99,2957.87,2903.03,3137.57,350.73,347.98,17.96,0000 0000 0000 0000 000000
2014-12-23 08:26:52,0.08,1.48,0.00,21.25,25.51,28.50,4.79,26.48,1009.38,2039.99,2957.04,2902.41,3136.99,350.24,347.50,17.99,0000 0000 0000 0000 000000
2014-12-23 08:31:53,0.05,1.49,0.00,21.28,25.52,28.50,4.79,26.72,1009.39,2039.98,2956.39,2902.00,3136.26,350.31,347.41,18.02,0000 0000 0000 0000 000000
2014-12-23 08:36:55,0.06,1.49,0.00,21.34,25.55,28.43,4.82,26.80,1009.41,2039.98,2955.84,2901.55,3135.80,350.47,347.76,18.05,0000 0000 0000 0000 000000
2014-12-23 08:41:56,0.03,1.49,0.00,21.40,25.56,28.50,4.84,26.74,1009.40,2039.86,2955.02,2900.99,3135.03,349.80,347.03,18.08,0000 0000 0000 0000 000000
2014-12-23 08:46:57,0.08,1.49,0.00,21.42,25.59,28.44,4.77,26.56,1009.40,2039.76,2954.17,2900.26,3134.69,349.75,347.02,18.11,0000 0000 0000 0000 000000
2014-12-23 08:51:59,-0.02,1.49,0.00,21.50,25.61,28.43,4.75,26.44,1009.54,2039.40,2953.46,2899.87,3133.99,350.10,347.09,18.14,0000 0000 0000 0000 000000
2014-12-23 08:57:00,1.46,1.50,0.00,21.51,25.63,28.44,4.78,26.67,1009.33,2039.09,2944.38,2893.74,3127.61,349.82,346.87,18.17,0000 0000 0000 0000 000000
2014-12-23 09:02:02,1.02,1.56,0.00,21.53,25.66,28.42,4.76,26.72,1009.30,2039.02,2924.51,2881.31,3114.38,350.10,346.96,18.20,0000 0000 0000 0000 000000
2014-12-23 09:07:03,0.10,1.57,0.00,21.61,25.69,28.46,4.82,26.88,1009.28,2039.00,2923.40,2880.33,3113.43,350.05,346.74,18.23,0000 0000 0000 0000 000000
2014-12-23 09:12:04,0.01,1.57,0.00,21.62,25.71,28.48,4.77,26.76,1009.20,2039.00,2922.90,2879.99,3112.97,349.90,346.98,18.26,0000 0000 0000 0000 000000
2014-12-23 09:17:05,0.09,1.57,0.00,21.62,25.74,28.53,4.69,26.63,1009.27,2038.99,2922.10,2879.30,3112.15,349.62,346.58,18.28,0000 0000 0000 0000 000000
2014-12-23 09:22:07,0.05,1.57,0.00,21.65,25.76,28.54,4.76,26.68,1009.29,2038.98,2921.41,2878.99,3111.48,349.93,346.64,18.31,0000 0000 0000 0000 000000
2014-12-23 09:27:08,0.05,1.57,0.00,21.66,25.80,28.56,4.73,26.54,1009.44,2038.93,2920.83,2878.31,3110.95,349.42,346.27,18.34,0000 0000 0000 0000 000000
2014-12-23 09:32:09,-0.01,1.57,0.00,21.70,25.82,28.60,4.78,26.58,1009.61,2038.61,2920.03,2877.96,3110.12,349.40,346.32,18.37,0000 0000 0000 0000 000000
2014-12-23 09:37:11,0.03,1.57,0.00,21.70,25.85,28.66,4.70,26.55,1009.34,2038.21,2919.27,2877.20,3109.60,349.95,346.67,18.40,0000 0000 0000 0000 000000
2014-12-23 09:42:12,0.03,1.58,0.00,21.75,25.87,28.66,4.72,26.50,1009.34,2038.02,2918.36,2876.83,3109.00,349.81,346.48,18.43,0000 0000 0000 0000 000000
2014-12-23 09:47:13,0.07,1.58,0.00,21.79,25.91,28.70,4.74,26.40,1009.33,2038.02,2917.89,2876.07,3108.28,350.26,346.97,18.46,0000 0000 0000 0000 000000
2014-12-23 09:52:15,0.06,1.58,0.00,21.82,25.93,28.72,4.75,26.26,1009.51,2038.00,2917.08,2875.75,3107.76,350.19,346.78,18.49,0000 0000 0000 0000 000000
2014-12-23 09:57:16,0.07,1.58,0.00,21.84,25.96,28.73,4.71,26.44,1009.44,2038.00,2916.37,2875.05,3107.05,349.85,346.38,18.52,0000 0000 0000 0000 000000
2014-12-23 10:02:17,0.09,1.58,0.00,21.89,25.99,28.77,4.86,26.77,1009.32,2037.99,2915.69,2874.49,3106.30,350.07,346.69,18.55,0000 0000 0000 0000 000000
2014-12-23 10:07:19,0.04,1.59,0.00,21.92,26.01,28.78,4.82,26.49,1009.29,2037.97,2914.94,2873.97,3105.68,350.37,346.70,18.58,0000 0000 0000 0000 000000
2014-12-23 10:12:20,0.04,1.59,0.00,21.94,26.05,28.83,4.70,26.44,1009.29,2037.76,2914.14,2873.21,3104.97,349.66,346.24,18.61,0000 0000 0000 0000 000000
2014-12-23 10:17:21,0.01,1.59,0.00,21.97,26.07,28.85,4.68,26.62,1009.06,2037.32,2913.35,2872.69,3104.15,349.60,346.04,18.64,0000 0000 0000 0000 000000
2014-12-23 10:22:22,0.05,1.59,0.00,21.98,26.10,28.90,4.71,26.54,1009.00,2037.06,2912.56,2872.03,3103.49,349.71,346.07,18.67,0000 0000 0000 0000 000000
2014-12-23 10:27:23,0.05,1.59,0.00,21.99,26.13,28.93,4.83,26.71,1008.97,2037.02,2911.90,2871.56,3102.89,350.30,346.55,18.70,0000 0000 0000 0000 000000
2014-12-23 10:32:24,0.07,1.59,0.00,22.02,26.16,28.99,4.70,26.57,1008.92,2037.00,2910.98,2870.96,3102.06,349.52,345.85,18.72,0000 0000 0000 0000 000000
2014-12-23 10:37:26,0.10,1.60,0.00,22.02,26.19,29.04,4.84,26.82,1008.82,2037.00,2910.06,2870.17,3101.39,350.07,346.32,18.75,0000 0000 0000 0000 000000
2014-12-23 10:42:27,0.09,1.60,0.00,22.02,26.21,29.09,4.74,26.93,1008.81,2036.98,2909.09,2869.51,3100.62,350.37,346.64,18.78,0000 0000 0000 0000 000000
2014-12-23 10:47:28,0.04,1.60,0.00,22.03,26.24,29.09,4.77,26.75,1008.83,2036.97,2908.48,2868.99,3099.99,350.01,346.17,18.81,0000 0000 0000 0000 000000
2014-12-23 10:52:30,0.07,1.60,0.00,22.04,26.27,29.20,4.83,26.54,1008.85,2036.89,2907.86,2868.33,3099.19,350.38,346.59,18.84,0000 0000 0000 0000 000000
2014-12-23 10:57:31,0.04,1.60,0.00,22.05,26.29,29.16,4.71,26.57,1008.98,2036.73,2907.02,2867.92,3098.68,349.61,345.98,18.87,0000 0000 0000 0000 000000
2014-12-23 11:02:32,-0.01,1.60,0.00,22.07,26.31,29.25,4.74,26.46,1009.17,2036.31,2906.16,2867.14,3097.97,349.79,345.73,18.90,0000 0000 0000 0000 000000
2014-12-23 11:07:33,0.06,1.60,0.00,22.09,26.34,29.30,4.78,26.60,1009.21,2036.08,2905.39,2866.71,3097.16,349.97,346.19,18.93,0000 0000 0000 0000 000000
2014-12-23 11:12:34,0.05,1.61,0.00,22.11,26.36,29.34,4.79,26.69,1008.88,2036.02,2904.76,2866.03,3096.67,350.35,346.49,18.96,0000 0000 0000 0000 000000
2014-12-23 11:17:36,0.07,1.61,0.00,22.12,26.39,29.31,4.76,26.74,1008.83,2036.00,2903.94,2865.39,3095.97,350.07,346.38,18.99,0000 0000 0000 0000 000000
2014-12-23 11:22:37,0.06,1.61,0.00,22.13,26.41,29.34,4.83,26.73,1008.83,2036.00,2903.08,2864.96,3095.14,349.55,345.64,19.02,0000 0000 0000 0000 000000
2014-12-23 11:27:38,0.11,1.61,0.00,22.15,26.43,29.41,4.76,26.73,1008.89,2036.00,2902.29,2864.16,3094.44,350.14,346.17,19.05,0000 0000 0000 0000 000000
2014-12-23 11:32:39,0.08,1.62,0.00,22.19,26.45,29.43,4.84,26.75,1009.27,2035.99,2901.36,2863.59,3093.74,350.49,346.35,19.08,0000 0000 0000 0000 000000
2014-12-23 11:37:41,0.05,1.62,0.00,22.19,26.47,29.46,4.70,26.59,1009.30,2035.98,2900.69,2862.96,3092.96,349.62,345.80,19.11,0000 0000 0000 0000 000000
2014-12-23 11:42:42,0.08,1.62,0.00,22.21,26.50,29.48,4.83,26.57,1009.31,2035.86,2899.90,2862.11,3092.09,350.37,346.38,19.13,0000 0000 0000 0000 000000
2014-12-23 11:47:43,0.01,1.62,0.00,22.24,26.52,29.46,4.87,26.54,1009.31,2035.52,2899.00,2861.69,3091.44,350.38,346.45,19.16,0000 0000 0000 0000 000000
2014-12-23 11:52:44,0.02,1.62,0.00,22.27,26.54,29.51,4.77,26.62,1009.36,2035.15,2898.11,2861.01,3090.73,350.36,346.40,19.19,0000 0000 0000 0000 000000
2014-12-23 11:57:46,0.08,1.62,0.00,22.33,26.56,29.54,4.79,26.46,1009.34,2035.05,2897.23,2860.27,3090.01,350.34,346.35,19.22,0000 0000 0000 0000 000000
2014-12-23 12:02:47,0.07,1.63,0.00,22.33,26.58,29.50,4.70,26.43,1009.36,2035.04,2896.47,2859.79,3089.24,349.60,345.51,19.25,0000 0000 0000 0000 000000
2014-12-23 12:07:48,0.08,1.63,0.00,22.38,26.60,29.53,4.71,26.51,1009.31,2035.00,2895.64,2859.04,3088.50,349.87,345.79,19.28,0000 0000 0000 0000 000000
2014-12-23 12:12:50,0.08,1.63,0.00,22.41,26.62,29.54,4.78,26.66,1009.31,2035.00,2894.79,2858.49,3087.79,350.50,346.21,19.31,0000 0000 0000 0000 000000
2014-12-23 12:17:51,0.08,1.63,0.00,22.43,26.65,29.57,4.69,26.23,1009.32,2035.00,2893.85,2857.75,3086.97,349.65,345.61,19.34,0000 0000 0000 0000 000000
2014-12-23 12:22:52,0.08,1.64,0.00,22.48,26.67,29.58,4.73,26.35,1009.38,2035.00,2892.88,2857.02,3086.08,349.63,345.41,19.37,0000 0000 0000 0000 000000
2014-12-23 12:27:54,0.10,1.64,0.00,22.50,26.70,29.58,4.71,26.57,1009.31,2034.97,2891.93,2856.16,3085.25,349.74,345.48,19.40,0000 0000 0000 0000 000000
2014-12-23 12:32:55,0.10,1.64,0.00,22.55,26.72,29.54,4.79,26.43,1009.39,2034.97,2890.89,2855.53,3084.41,350.52,346.23,19.43,0000 0000 0000 0000 000000
2014-12-23 12:37:57,0.05,1.64,0.00,22.61,26.75,29.58,4.78,26.46,1009.42,2034.81,2889.83,2854.76,3083.59,350.02,345.72,19.46,0000 0000 0000 0000 000000
2014-12-23 12:42:58,0.00,1.64,0.00,22.63,26.77,29.56,4.74,26.45,1009.37,2034.22,2888.87,2853.96,3082.62,349.65,345.31,19.49,0000 0000 0000 0000 000000
2014-12-23 12:47:59,0.10,1.65,0.00,22.66,26.80,29.56,4.66,26.38,1009.37,2034.11,2887.74,2853.07,3081.64,349.71,345.23,19.52,0000 0000 0000 0000 000000
2014-12-23 12:53:00,0.10,1.65,0.00,22.71,26.83,29.58,4.72,26.35,1009.40,2034.02,2886.61,2852.17,3080.69,349.56,345.12,19.54,0000 0000 0000 0000 000000
2014-12-23 12:58:01,0.12,1.65,0.00,22.73,26.86,29.62,4.81,26.45,1009.40,2034.00,2885.37,2851.25,3079.68,350.35,345.73,19.57,0000 0000 0000 0000 000000
2014-12-23 13:03:03,0.13,1.66,0.00,22.77,26.88,29.64,4.67,26.49,1009.50,2034.00,2883.93,2850.20,3078.48,349.82,345.53,19.60,0000 0000 0000 0000 000000